QZS-2 (QZSS/PRN 184)

Last updated on Wed May 01 2024 00:03:14 GMT+0000 (Coordinated Universal Time)

1 42738U 17028A 24121.22834111 -.00000192 00000+0 00000+0 0 9995 2 42738 40.6536 254.4424 0739983 270.7348 273.4801 1.00248741 25330
UTC large
Height (km)
Speed (km/s)
/
Latitude / Longitude
Inclination (degrees)
Orbital Period (minutes)
Azimuth
Elevation
Range (km)
Doppler Factor

Next 0 passes for location: London (51.5072 / 0.1276)

Sorry there are no passes over London.